Regional Weather Roundup
Issued by NWS Goodland, KS

Home | Current Version | Previous Version | Text Only | Print | Product List | Glossary Off
Versions: 1 2 3 4 5 6 7 8 9 10 11 12 13 14 15 16 17 18 19 20 21 22 23 24 25 26 27 28 29 30 31 32 33 34 35 36 37 38 39 40 41 42 43 44 45 46 47 48 49 50

049
ASUS43 KGLD 221459
RWRGLD

GOODLAND FORECAST AREA HOURLY WEATHER ROUNDUP
NATIONAL WEATHER SERVICE GOODLAND KS
800 AM MST WED FEB 22 2017

...OFFICIAL OBSERVATIONS...

CITY           SKY/WX    TMP DP  RH WIND       PRES   REMARKS
GOODLAND KS    SUNNY     48  31  51 NW15      29.86R
HILL CITY KS   MOSUNNY   51  33  50 W7        29.80R
IMPERIAL NEB   SUNNY     43  32  65 W6        29.86S
MCCOOK NEB     SUNNY     47  34  60 NW21      29.81R
AKRON CO       SUNNY     41  26  55 W6        29.89R
BURLINGTON CO  SUNNY     45  30  55 NW12      29.90R
LIMON CO       SUNNY     43  27  53 NE8       29.92R
$$

...UNOFFICIAL OBSERVATIONS...

CITY           SKY/WX    TMP DP  RH WIND       PRES   REMARKS
LENORA KS        N/A     49  32  52 NW12        N/A
NORTON KS      SUNNY     54  30  40 NW15      29.76S
SHARON SPRINGS   N/A     49  29  45 N12         N/A
TRENTON NEB      N/A     47  32  56 NW7         N/A
KIT CARSON CO    N/A     43  28  56 MISG        N/A
YUMA CO        FAIR      41  28  60 W7        29.89R
$$




USA.gov is the U.S. government's official web portal to all federal, state and local government web resources and services.